CSN3515 ZUCK-ZJSY

Flight info

Callsign CSN3515
Flight time 1h 56m
Altitude 31100
Route VILUS W180 ELBAV W181 DUDIT A599 LBN W159 BHY W70 NYB G221 WL
Aircraft A321/M-SDE3FGHIRWY/LB1

Departure

Time 2026-04-30 12:02
Airport Chongqing Jiangbei International Airport (ZUCK)

Arrival

Time 2026-04-30 13:59
Airport Sanya Phoenix International Airport (ZJSY)
Time Latitude Longitude Altitude Speed Heading
2026-04-30 11:45 29.71452 106.65606 1345 ft 0 kts 302°
2026-04-30 11:54 29.71446 106.65619 1347 ft 4 kts 303°
2026-04-30 11:54 29.71430 106.65644 1344 ft 4 kts 308°
2026-04-30 11:54 29.71413 106.65667 1344 ft 4 kts 316°
2026-04-30 11:54 29.71392 106.65685 1345 ft 4 kts 342°
2026-04-30 11:55 29.71374 106.65686 1344 ft 1 kts 35°
2026-04-30 11:57 29.71375 106.65687 1344 ft 1 kts 35°
2026-04-30 11:58 29.71420 106.65723 1342 ft 15 kts 30°
2026-04-30 11:58 29.71523 106.65769 1343 ft 12 kts 41°
2026-04-30 11:58 29.71533 106.65800 1340 ft 3 kts 85°
2026-04-30 11:58 29.71526 106.65840 1341 ft 6 kts 105°
2026-04-30 11:59 29.71512 106.65898 1338 ft 9 kts 105°
2026-04-30 11:59 29.71494 106.65973 1337 ft 11 kts 105°
2026-04-30 11:59 29.71483 106.66016 1337 ft 0 kts 105°
2026-04-30 12:01 29.71482 106.66018 1337 ft 2 kts 105°
2026-04-30 12:01 29.71470 106.66070 1337 ft 12 kts 105°
2026-04-30 12:01 29.71488 106.66154 1339 ft 15 kts 41°
2026-04-30 12:01 29.71627 106.66207 1336 ft 34 kts 15°
2026-04-30 12:02 29.72090 106.66367 1332 ft 103 kts 17°
2026-04-30 12:02 29.72964 106.66672 1328 ft 156 kts 17°
2026-04-30 12:02 29.74114 106.67063 1588 ft 177 kts 16°
2026-04-30 12:02 29.75298 106.67483 2149 ft 182 kts 20°
2026-04-30 12:03 29.76489 106.67933 2753 ft 182 kts 24°
2026-04-30 12:03 29.78805 106.69432 3463 ft 209 kts 36°
2026-04-30 12:03 29.80088 106.70382 3592 ft 229 kts 37°
2026-04-30 12:04 29.81463 106.71399 3785 ft 244 kts 36°
2026-04-30 12:04 29.82966 106.72503 3953 ft 267 kts 35°
2026-04-30 12:06 29.83676 106.87232 9329 ft 281 kts 110°
2026-04-30 12:06 29.83098 106.89402 9945 ft 286 kts 110°
2026-04-30 12:06 29.82513 106.91606 10524 ft 290 kts 110°
2026-04-30 12:07 29.81919 106.93838 11113 ft 293 kts 110°
2026-04-30 12:07 29.81244 106.96082 11470 ft 304 kts 119°
2026-04-30 12:07 29.80012 106.98130 11610 ft 320 kts 137°
2026-04-30 12:07 29.78205 106.99704 11742 ft 335 kts 155°
2026-04-30 12:08 29.75993 107.00579 11873 ft 349 kts 173°
2026-04-30 12:08 29.73545 107.00581 12166 ft 357 kts 191°
2026-04-30 12:08 29.71137 106.99830 12651 ft 361 kts 198°
2026-04-30 12:08 29.68718 106.98990 13175 ft 365 kts 198°
2026-04-30 12:09 29.66270 106.98138 13701 ft 370 kts 198°
2026-04-30 12:09 29.63793 106.97277 14172 ft 373 kts 198°
2026-04-30 12:09 29.61276 106.96506 14674 ft 377 kts 191°
2026-04-30 12:09 29.58648 106.96250 15152 ft 382 kts 182°
2026-04-30 12:10 29.55980 106.96229 15638 ft 385 kts 182°
2026-04-30 12:10 29.53331 106.96201 16119 ft 387 kts 183°
2026-04-30 12:10 29.50628 106.96168 16626 ft 390 kts 183°
2026-04-30 12:10 29.47905 106.96130 17093 ft 393 kts 183°
2026-04-30 12:11 29.45158 106.96092 17610 ft 395 kts 183°
2026-04-30 12:11 29.42402 106.96056 18116 ft 398 kts 183°
2026-04-30 12:11 29.39623 106.96020 18574 ft 400 kts 183°
2026-04-30 12:11 29.36829 106.95985 19012 ft 403 kts 183°
2026-04-30 12:12 29.34016 106.95951 19431 ft 406 kts 183°
2026-04-30 12:12 29.31180 106.95918 19855 ft 408 kts 183°
2026-04-30 12:12 29.28368 106.95885 20254 ft 411 kts 184°
2026-04-30 12:12 29.25497 106.95850 20642 ft 414 kts 184°
2026-04-30 12:13 29.22602 106.95813 21029 ft 417 kts 184°
2026-04-30 12:13 29.19690 106.95775 21411 ft 420 kts 184°
2026-04-30 12:13 29.16758 106.95740 21792 ft 422 kts 184°
2026-04-30 12:13 29.13809 106.95706 22159 ft 425 kts 184°
2026-04-30 12:14 29.10845 106.95670 22538 ft 428 kts 184°
2026-04-30 12:14 29.07860 106.95633 22897 ft 430 kts 184°
2026-04-30 12:14 29.04856 106.95595 23256 ft 433 kts 184°
2026-04-30 12:14 29.01873 106.95557 23580 ft 436 kts 184°
2026-04-30 12:15 28.98820 106.95518 23764 ft 442 kts 185°
2026-04-30 12:15 28.95733 106.95478 24028 ft 446 kts 185°
2026-04-30 12:15 28.92624 106.95439 24328 ft 448 kts 185°
2026-04-30 12:15 28.89498 106.95401 24619 ft 450 kts 185°
2026-04-30 12:16 28.86370 106.95366 24884 ft 451 kts 185°
2026-04-30 12:16 28.83220 106.95330 25170 ft 453 kts 185°
2026-04-30 12:16 28.80057 106.95294 25429 ft 455 kts 185°
2026-04-30 12:16 28.76928 106.95260 25709 ft 458 kts 185°
2026-04-30 12:17 28.70528 106.95190 26272 ft 463 kts 185°
2026-04-30 12:17 28.67292 106.95151 26551 ft 465 kts 185°
2026-04-30 12:17 28.64051 106.95111 26847 ft 467 kts 185°
2026-04-30 12:18 28.60792 106.95069 27137 ft 470 kts 185°
2026-04-30 12:18 28.57515 106.95029 27421 ft 472 kts 185°
2026-04-30 12:18 28.54226 106.94987 27699 ft 474 kts 185°
2026-04-30 12:18 28.50925 106.94944 27986 ft 476 kts 185°
2026-04-30 12:19 28.47657 106.94904 28274 ft 477 kts 185°
2026-04-30 12:19 28.44327 106.94862 28546 ft 479 kts 185°
2026-04-30 12:19 28.40989 106.94819 28826 ft 481 kts 185°
2026-04-30 12:19 28.37634 106.94778 29147 ft 482 kts 185°
2026-04-30 12:20 28.34286 106.94743 29543 ft 481 kts 185°
2026-04-30 12:20 28.30944 106.94710 29928 ft 480 kts 185°
2026-04-30 12:20 28.27603 106.94680 30286 ft 480 kts 185°
2026-04-30 12:20 28.24265 106.94650 30603 ft 479 kts 185°
2026-04-30 12:21 28.20929 106.94688 30931 ft 480 kts 183°
2026-04-30 12:21 28.17635 106.94825 31101 ft 481 kts 182°
2026-04-30 12:21 28.11005 106.95283 31162 ft 473 kts 181°
2026-04-30 12:22 28.04460 106.95744 31163 ft 471 kts 182°
2026-04-30 12:22 27.97917 106.96089 31163 ft 470 kts 183°
2026-04-30 12:23 27.91429 106.96370 31163 ft 470 kts 183°
2026-04-30 12:23 27.84898 106.96685 31142 ft 470 kts 182°
2026-04-30 12:24 27.78364 106.97079 31150 ft 471 kts 182°
2026-04-30 12:24 27.71814 106.97497 31161 ft 471 kts 182°
2026-04-30 12:25 27.65272 106.97892 31164 ft 471 kts 182°
2026-04-30 12:25 27.58777 106.98268 31152 ft 470 kts 182°
2026-04-30 12:26 27.52241 106.98616 31168 ft 469 kts 183°
2026-04-30 12:26 27.45721 106.98833 31166 ft 469 kts 183°
2026-04-30 12:27 27.39192 106.99129 31171 ft 469 kts 182°
2026-04-30 12:27 27.32669 106.99501 31178 ft 469 kts 182°
2026-04-30 12:28 27.26189 106.99877 31175 ft 470 kts 182°
2026-04-30 12:28 27.19670 107.00234 31180 ft 469 kts 182°
2026-04-30 12:29 27.13149 107.00574 31177 ft 469 kts 182°
2026-04-30 12:29 27.09883 107.00746 30906 ft 471 kts 182°
2026-04-30 12:29 27.06599 107.00918 29999 ft 476 kts 180°
2026-04-30 12:30 27.03395 107.01109 30134 ft 463 kts 182°
2026-04-30 12:30 27.00155 107.01295 30141 ft 469 kts 182°
2026-04-30 12:30 26.93622 107.01634 30314 ft 469 kts 182°
2026-04-30 12:31 26.90371 107.01800 30681 ft 467 kts 183°
2026-04-30 12:31 26.87131 107.01955 31031 ft 466 kts 183°
2026-04-30 12:31 26.83888 107.02101 31153 ft 468 kts 183°
2026-04-30 12:31 26.80634 107.02247 31184 ft 468 kts 183°
2026-04-30 12:32 26.74179 107.02573 31185 ft 468 kts 182°
2026-04-30 12:32 26.67674 107.02923 31192 ft 468 kts 182°
2026-04-30 12:33 26.61174 107.03265 31192 ft 468 kts 182°
2026-04-30 12:33 26.54679 107.03604 31196 ft 467 kts 183°
2026-04-30 12:34 26.48219 107.03926 31201 ft 468 kts 183°
2026-04-30 12:34 26.41718 107.04239 31177 ft 468 kts 183°
2026-04-30 12:35 26.35216 107.04553 31191 ft 471 kts 178°
2026-04-30 12:35 26.31985 107.05270 31202 ft 478 kts 167°
2026-04-30 12:35 26.28877 107.06639 31195 ft 484 kts 156°
2026-04-30 12:36 26.23463 107.11182 31194 ft 493 kts 138°
2026-04-30 12:36 26.18613 107.16527 31193 ft 494 kts 138°
2026-04-30 12:37 26.13721 107.21902 31194 ft 495 kts 138°
2026-04-30 12:37 26.08814 107.27276 31195 ft 494 kts 139°
2026-04-30 12:38 26.03920 107.32627 31213 ft 493 kts 138°
2026-04-30 12:38 25.99067 107.37912 31208 ft 492 kts 139°
2026-04-30 12:39 25.94181 107.43233 31200 ft 491 kts 138°
2026-04-30 12:39 25.89312 107.48554 31191 ft 491 kts 138°
2026-04-30 12:40 25.84426 107.53872 31187 ft 491 kts 138°
2026-04-30 12:40 25.79570 107.59141 31186 ft 492 kts 138°
2026-04-30 12:41 25.74685 107.64444 31191 ft 491 kts 138°
2026-04-30 12:41 25.69826 107.69728 31211 ft 489 kts 138°
2026-04-30 12:42 25.64994 107.75016 31201 ft 487 kts 138°
2026-04-30 12:42 25.60205 107.80267 31174 ft 488 kts 138°
2026-04-30 12:43 25.55374 107.85560 31164 ft 488 kts 138°
2026-04-30 12:43 25.50531 107.90839 31164 ft 489 kts 139°
2026-04-30 12:44 25.45017 107.95069 31168 ft 480 kts 159°
2026-04-30 12:44 25.38760 107.97146 31176 ft 469 kts 176°
2026-04-30 12:45 25.32285 107.97932 31180 ft 468 kts 178°
2026-04-30 12:45 25.25818 107.98724 31181 ft 467 kts 177°
2026-04-30 12:46 25.19359 107.99526 31172 ft 467 kts 177°
2026-04-30 12:46 25.12948 108.00307 31152 ft 466 kts 177°
2026-04-30 12:47 25.06500 108.01091 31160 ft 466 kts 177°
2026-04-30 12:47 25.00059 108.01882 31159 ft 466 kts 177°
2026-04-30 12:48 24.93622 108.02665 31155 ft 465 kts 177°
2026-04-30 12:48 24.87231 108.03432 31146 ft 465 kts 177°
2026-04-30 12:49 24.80798 108.04208 31137 ft 465 kts 176°
2026-04-30 12:49 24.74365 108.04994 31140 ft 465 kts 176°
2026-04-30 12:50 24.67930 108.05783 31146 ft 465 kts 177°
2026-04-30 12:50 24.61531 108.06545 31148 ft 465 kts 177°
2026-04-30 12:51 24.55096 108.07314 31151 ft 465 kts 177°
2026-04-30 12:51 24.48662 108.08093 31146 ft 465 kts 176°
2026-04-30 12:52 24.42232 108.08868 31143 ft 465 kts 176°
2026-04-30 12:52 24.35797 108.09634 31143 ft 465 kts 176°
2026-04-30 12:53 24.29412 108.10394 31141 ft 465 kts 176°
2026-04-30 12:53 24.22985 108.11177 31140 ft 465 kts 176°
2026-04-30 12:54 24.16552 108.11968 31137 ft 465 kts 176°
2026-04-30 12:54 24.10128 108.12756 31133 ft 465 kts 176°
2026-04-30 12:55 24.03748 108.13537 31134 ft 465 kts 176°
2026-04-30 12:55 23.97318 108.14319 31134 ft 465 kts 176°
2026-04-30 12:56 23.90900 108.15232 31125 ft 468 kts 168°
2026-04-30 12:56 23.87858 108.16526 31128 ft 472 kts 152°
2026-04-30 12:56 23.85211 108.18662 31128 ft 476 kts 136°
2026-04-30 12:57 23.83165 108.21502 31123 ft 479 kts 121°
2026-04-30 12:57 23.81872 108.24856 31116 ft 481 kts 104°
2026-04-30 12:57 23.81399 108.28412 31113 ft 481 kts 93°
2026-04-30 12:57 23.81197 108.32059 31109 ft 482 kts 93°
2026-04-30 12:58 23.80798 108.39377 31111 ft 483 kts 94°
2026-04-30 12:58 23.80378 108.46711 31117 ft 484 kts 94°
2026-04-30 12:59 23.79950 108.54046 31124 ft 484 kts 94°
2026-04-30 12:59 23.79524 108.61334 31126 ft 484 kts 94°
2026-04-30 13:00 23.79100 108.68676 31133 ft 485 kts 94°
2026-04-30 13:00 23.78670 108.76022 31137 ft 485 kts 94°
2026-04-30 13:01 23.78234 108.83367 31139 ft 485 kts 94°
2026-04-30 13:01 23.77793 108.90660 31140 ft 485 kts 94°
2026-04-30 13:02 23.77350 108.98002 31143 ft 485 kts 94°
2026-04-30 13:02 23.76625 109.05306 31128 ft 484 kts 107°
2026-04-30 13:03 23.75354 109.08684 31127 ft 481 kts 122°
2026-04-30 13:03 23.73368 109.11591 31124 ft 477 kts 136°
2026-04-30 13:03 23.70823 109.13880 31116 ft 473 kts 150°
2026-04-30 13:03 23.67932 109.15426 31111 ft 468 kts 164°
2026-04-30 13:04 23.64782 109.16209 31105 ft 463 kts 175°
2026-04-30 13:04 23.61582 109.16635 31103 ft 464 kts 176°
2026-04-30 13:04 23.55161 109.17470 31102 ft 465 kts 176°
2026-04-30 13:05 23.48728 109.18307 31106 ft 466 kts 176°
2026-04-30 13:06 23.39105 109.19575 31109 ft 466 kts 175°
2026-04-30 13:06 23.32661 109.20428 31114 ft 467 kts 175°
2026-04-30 13:07 23.26213 109.21280 31122 ft 467 kts 175°
2026-04-30 13:07 23.19763 109.22132 31127 ft 467 kts 175°
2026-04-30 13:08 23.13350 109.22972 31127 ft 467 kts 175°
2026-04-30 13:08 23.06895 109.23816 31132 ft 467 kts 175°
2026-04-30 13:09 23.00443 109.24665 31138 ft 467 kts 175°
2026-04-30 13:09 22.93999 109.25510 31138 ft 467 kts 175°
2026-04-30 13:10 22.87593 109.26348 31138 ft 467 kts 175°
2026-04-30 13:10 22.81140 109.27193 31134 ft 467 kts 175°
2026-04-30 13:11 22.74691 109.28032 31136 ft 467 kts 175°
2026-04-30 13:11 22.68234 109.28877 31139 ft 467 kts 175°
2026-04-30 13:12 22.61819 109.29719 31143 ft 467 kts 175°
2026-04-30 13:12 22.55368 109.30569 31144 ft 467 kts 175°
2026-04-30 13:13 22.45681 109.31852 31137 ft 467 kts 176°
2026-04-30 13:14 22.36005 109.33114 31138 ft 467 kts 176°
2026-04-30 13:14 22.26376 109.34380 31140 ft 467 kts 176°
2026-04-30 13:15 22.16699 109.35647 31144 ft 467 kts 176°
2026-04-30 13:16 22.10257 109.36485 31149 ft 466 kts 176°
2026-04-30 13:16 22.03819 109.37317 31141 ft 465 kts 176°
2026-04-30 13:17 21.94225 109.38563 31138 ft 465 kts 176°
2026-04-30 13:18 21.84592 109.39811 31149 ft 464 kts 176°
2026-04-30 13:18 21.75024 109.41046 31149 ft 463 kts 176°
2026-04-30 13:19 21.68630 109.41874 31144 ft 462 kts 176°
2026-04-30 13:19 21.62248 109.42709 31138 ft 462 kts 175°
2026-04-30 13:20 21.56077 109.44786 31136 ft 472 kts 156°
2026-04-30 13:20 21.50374 109.48305 31133 ft 473 kts 154°
2026-04-30 13:21 21.44707 109.51816 31130 ft 474 kts 154°
2026-04-30 13:22 21.36120 109.57100 31136 ft 474 kts 154°
2026-04-30 13:22 21.27028 109.60544 31129 ft 460 kts 177°
2026-04-30 13:23 21.17527 109.61912 31143 ft 459 kts 177°
2026-04-30 13:24 21.04893 109.63742 31149 ft 458 kts 177°
2026-04-30 13:25 20.92313 109.65558 31154 ft 457 kts 177°
2026-04-30 13:26 20.76561 109.67840 31149 ft 457 kts 177°
2026-04-30 13:28 20.60849 109.70102 31142 ft 457 kts 178°
2026-04-30 13:28 20.51455 109.71892 31147 ft 464 kts 165°
2026-04-30 13:29 20.45775 109.75314 31145 ft 478 kts 145°
2026-04-30 13:29 20.40669 109.79780 31143 ft 478 kts 146°
2026-04-30 13:31 20.27730 109.90975 31129 ft 480 kts 146°
2026-04-30 13:32 20.14805 110.02148 31158 ft 480 kts 146°
2026-04-30 13:33 20.03901 110.09955 31147 ft 462 kts 169°
2026-04-30 13:33 19.97706 110.10674 31144 ft 445 kts 191°
2026-04-30 13:34 19.94686 110.10107 31140 ft 438 kts 200°
2026-04-30 13:35 19.83608 110.04999 30687 ft 435 kts 208°
2026-04-30 13:35 19.78087 110.02349 29611 ft 436 kts 208°
2026-04-30 13:36 19.72568 109.99694 28468 ft 440 kts 208°
2026-04-30 13:36 19.70680 109.98785 28076 ft 442 kts 208°
2026-04-30 13:36 19.68827 109.97891 27660 ft 442 kts 208°
2026-04-30 13:37 19.61543 109.94381 26077 ft 435 kts 208°
2026-04-30 13:37 19.56062 109.91750 24921 ft 430 kts 208°
2026-04-30 13:38 19.50679 109.89162 23824 ft 425 kts 208°
2026-04-30 13:38 19.47990 109.87869 23218 ft 423 kts 208°
2026-04-30 13:38 19.42670 109.85316 21950 ft 417 kts 207°
2026-04-30 13:39 19.37421 109.82807 20733 ft 411 kts 207°
2026-04-30 13:39 19.32230 109.80337 19558 ft 407 kts 207°
2026-04-30 13:40 19.29647 109.79113 18986 ft 406 kts 206°
2026-04-30 13:40 19.27073 109.77896 18432 ft 405 kts 206°
2026-04-30 13:40 19.24537 109.76700 17817 ft 402 kts 206°
2026-04-30 13:40 19.22010 109.75499 17225 ft 394 kts 206°
2026-04-30 13:41 19.19535 109.74309 16669 ft 388 kts 206°
2026-04-30 13:41 19.17091 109.73125 16182 ft 384 kts 206°
2026-04-30 13:41 19.14673 109.71949 15704 ft 381 kts 206°
2026-04-30 13:41 19.12273 109.70782 15230 ft 379 kts 206°
2026-04-30 13:42 19.09885 109.69627 14779 ft 376 kts 206°
2026-04-30 13:42 19.07509 109.68483 14308 ft 374 kts 206°
2026-04-30 13:42 19.03362 109.66490 13472 ft 371 kts 206°
2026-04-30 13:43 19.01021 109.65363 13046 ft 368 kts 206°
2026-04-30 13:43 18.98691 109.64242 12842 ft 368 kts 205°
2026-04-30 13:43 18.96359 109.63120 12826 ft 368 kts 206°
2026-04-30 13:43 18.94028 109.61999 12835 ft 369 kts 206°
2026-04-30 13:44 18.91723 109.60891 12828 ft 369 kts 205°
2026-04-30 13:44 18.89386 109.59771 12830 ft 369 kts 206°
2026-04-30 13:44 18.87054 109.58652 12834 ft 369 kts 205°
2026-04-30 13:44 18.84718 109.57532 12829 ft 369 kts 206°
2026-04-30 13:45 18.80044 109.55287 12828 ft 369 kts 206°
2026-04-30 13:45 18.77713 109.54165 12824 ft 368 kts 206°
2026-04-30 13:45 18.75379 109.53042 12825 ft 368 kts 206°
2026-04-30 13:46 18.73078 109.51937 12813 ft 369 kts 205°
2026-04-30 13:46 18.70738 109.50815 12818 ft 369 kts 205°
2026-04-30 13:46 18.68401 109.49698 12817 ft 369 kts 205°
2026-04-30 13:46 18.66060 109.48580 12780 ft 368 kts 205°
2026-04-30 13:47 18.63739 109.47469 12491 ft 366 kts 205°
2026-04-30 13:47 18.61421 109.46360 12109 ft 365 kts 205°
2026-04-30 13:47 18.59115 109.45258 11652 ft 362 kts 206°
2026-04-30 13:47 18.56839 109.44170 11171 ft 357 kts 205°
2026-04-30 13:48 18.54585 109.43090 10705 ft 354 kts 205°
2026-04-30 13:48 18.52438 109.42063 10428 ft 327 kts 205°
2026-04-30 13:48 18.50473 109.41113 10344 ft 297 kts 208°
2026-04-30 13:48 18.48782 109.39960 10159 ft 287 kts 220°
2026-04-30 13:49 18.47394 109.38463 9802 ft 285 kts 231°
2026-04-30 13:49 18.46144 109.36842 9404 ft 285 kts 231°
2026-04-30 13:49 18.44890 109.35218 9000 ft 286 kts 231°
2026-04-30 13:49 18.43657 109.33624 8593 ft 275 kts 231°
2026-04-30 13:50 18.42451 109.32065 8204 ft 273 kts 231°
2026-04-30 13:50 18.40087 109.29009 7446 ft 269 kts 231°
2026-04-30 13:50 18.39011 109.27416 7065 ft 266 kts 243°
2026-04-30 13:51 18.38390 109.25592 6671 ft 262 kts 259°
2026-04-30 13:51 18.38148 109.23734 6261 ft 251 kts 262°
2026-04-30 13:51 18.37921 109.21947 5819 ft 242 kts 262°
2026-04-30 13:51 18.37693 109.20219 5369 ft 235 kts 262°
2026-04-30 13:52 18.37367 109.18549 4945 ft 233 kts 246°
2026-04-30 13:52 18.36393 109.17244 4510 ft 230 kts 215°
2026-04-30 13:52 18.34940 109.16669 4076 ft 228 kts 183°
2026-04-30 13:52 18.33367 109.16812 3652 ft 227 kts 172°
2026-04-30 13:53 18.31808 109.17039 3259 ft 226 kts 172°
2026-04-30 13:53 18.30258 109.17264 2928 ft 223 kts 172°
2026-04-30 13:53 18.28796 109.17626 2814 ft 211 kts 150°
2026-04-30 13:53 18.27773 109.18693 2908 ft 210 kts 116°
2026-04-30 13:54 18.27517 109.20124 2998 ft 189 kts 84°
2026-04-30 13:54 18.27686 109.21418 3003 ft 171 kts 82°
2026-04-30 13:54 18.27848 109.22619 2993 ft 166 kts 82°
2026-04-30 13:54 18.28002 109.23781 2897 ft 155 kts 82°
2026-04-30 13:55 18.28148 109.24884 2714 ft 150 kts 83°
2026-04-30 13:55 18.28290 109.25962 2523 ft 148 kts 82°
2026-04-30 13:55 18.28430 109.27030 2335 ft 146 kts 83°
2026-04-30 13:55 18.28569 109.28084 2152 ft 145 kts 84°
2026-04-30 13:56 18.28707 109.29135 1971 ft 145 kts 83°
2026-04-30 13:56 18.28844 109.30176 1782 ft 143 kts 84°
2026-04-30 13:56 18.28980 109.31214 1592 ft 143 kts 83°
2026-04-30 13:56 18.29115 109.32239 1401 ft 144 kts 83°
2026-04-30 13:57 18.29251 109.33277 1227 ft 143 kts 83°
2026-04-30 13:57 18.29393 109.34302 987 ft 139 kts 82°
2026-04-30 13:57 18.29538 109.35313 855 ft 140 kts 80°
2026-04-30 13:57 18.29650 109.36335 723 ft 141 kts 78°
2026-04-30 13:58 18.29768 109.37359 574 ft 141 kts 82°
2026-04-30 13:58 18.30055 109.39386 177 ft 139 kts 75°
2026-04-30 13:58 18.30177 109.40361 77 ft 126 kts 82°
2026-04-30 13:59 18.30275 109.41095 86 ft 76 kts 82°
2026-04-30 13:59 18.30323 109.41469 89 ft 27 kts 83°
2026-04-30 13:59 18.30348 109.41638 92 ft 23 kts 75°
2026-04-30 13:59 18.30422 109.41790 91 ft 24 kts 53°
2026-04-30 14:00 18.30506 109.41869 94 ft 12 kts
2026-04-30 14:00 18.30533 109.41757 91 ft 11 kts 262°
2026-04-30 14:00 18.30522 109.41671 89 ft 13 kts 259°
2026-04-30 14:01 18.30508 109.41568 90 ft 15 kts 260°
2026-04-30 14:01 18.30494 109.41451 87 ft 17 kts 262°
2026-04-30 14:01 18.30477 109.41319 87 ft 19 kts 262°
2026-04-30 14:01 18.30460 109.41188 88 ft 16 kts 262°
2026-04-30 14:02 18.30490 109.41142 86 ft 8 kts 355°
2026-04-30 14:02 18.30550 109.41138 85 ft 10 kts 354°
2026-04-30 14:02 18.30620 109.41125 88 ft 11 kts 352°
2026-04-30 14:02 18.30701 109.41113 87 ft 13 kts 352°
2026-04-30 14:03 18.30759 109.41067 86 ft 11 kts 276°
2026-04-30 14:03 18.30787 109.41018 88 ft 7 kts 345°
2026-04-30 14:03 18.30844 109.41008 86 ft 9 kts 353°
2026-04-30 14:03 18.30856 109.41007 85 ft 0 kts 353°